Date,TemperatureHighF,TemperatureAvgF,TemperatureLowF,DewpointHighF,DewpointAvgF,DewpointLowF,HumidityHigh,HumidityAvg,HumidityLow,PressureMaxIn,PressureMinIn,WindSpeedMaxMPH,WindSpeedAvgMPH,GustSpeedMaxMPH,PrecipitationSumIn
2013-3-1,38,36,33,33,30,26,83,79,71,29.91,29.85,12,6,12,0.01
2013-3-2,37,33,29,32,28,21,90,81,70,29.97,29.83,15,4,15,0.03
2013-3-3,32,29,26,22,19,18,76,67,57,30.05,29.95,14,4,14,0.00
2013-3-4,48,34,18,28,21,9,73,59,39,30.16,29.95,10,1,10,0.00
2013-3-5,50,40,29,47,34,21,89,80,65,29.97,29.51,37,6,37,1.27
2013-3-6,34,31,28,29,26,22,88,83,71,30.20,29.71,26,12,26,0.00
2013-3-7,36,33,30,30,28,26,85,80,75,30.29,30.17,4,0,4,0.00
2013-3-8,47,34,22,34,26,17,83,72,57,30.36,30.25,13,2,13,0.00
2013-3-9,65,40,22,42,29,17,81,66,34,30.29,30.09,9,0,9,0.00
2013-3-10,72,54,38,46,35,29,79,53,27,30.10,29.92,17,3,17,0.00
2013-3-11,61,58,52,49,44,32,83,63,34,29.93,29.67,27,9,27,0.68
2013-3-12,53,43,31,48,36,24,88,79,60,30.01,29.70,17,7,17,0.15
2013-3-13,42,35,28,33,24,16,82,66,47,30.23,29.98,26,7,26,0.00
2013-3-14,43,33,25,22,18,14,64,54,39,30.33,30.18,15,4,15,0.00
2013-3-15,64,46,28,41,31,17,70,56,39,30.19,29.80,20,4,20,0.00
2013-3-16,72,62,44,50,44,36,77,54,42,29.80,29.63,32,12,32,0.00
2013-3-17,70,59,49,54,48,41,79,69,53,29.88,29.72,14,2,14,0.00
2013-3-18,61,53,45,50,45,39,84,74,59,29.82,29.65,31,6,31,0.56
2013-3-19,55,46,34,47,32,15,88,61,27,30.05,29.71,26,7,26,0.14
2013-3-20,51,38,24,26,20,15,71,50,26,30.08,29.79,25,6,25,0.00
2013-3-21,37,29,21,24,13,8,66,50,35,29.98,29.84,20,7,20,0.00
2013-3-22,44,31,16,25,16,7,72,54,36,30.04,29.95,12,1,12,0.00
2013-3-23,51,43,38,40,33,25,75,67,55,29.97,29.70,10,1,10,0.00
2013-3-24,59,49,43,52,42,37,86,79,68,29.73,29.27,30,5,30,0.89
2013-3-25,42,34,31,37,28,26,85,78,68,29.92,29.45,33,18,33,1.16
2013-3-26,37,33,31,30,28,26,85,81,73,30.20,29.91,20,9,20,0.00
2013-3-27,42,34,25,29,26,17,87,72,56,30.27,30.18,18,4,18,0.00
2013-3-28,51,36,25,31,24,17,79,62,40,30.30,30.19,17,3,17,0.00
2013-3-29,52,37,22,36,27,15,81,69,40,30.29,30.17,17,3,17,0.03
2013-3-30,60,48,40,48,40,35,84,76,61,30.17,29.93,12,2,12,0.00
2013-3-31,60,53,46,53,48,39,88,83,73,29.94,29.75,21,5,21,0.41